Location: Unspecified
(0.0000°N, 0.0000°E)
Time: 12:46:54
(UTC+00:00)

N. Korean satellite - Pass Details

Date: 11 December 2017
Orbit: 461 x 513 km, 97.2° (Epoch: 16 December)

Event Time Altitude Azimuth Distance (km) Brightness Sun altitude
Rises 19:12:18 0° 202° (SSW) 2,533 10.9 -18.1°
Reaches altitude 10° 19:15:19 10° 231° (SW) 1,664 10.4 -18.8°
Maximum altitude 19:16:58 13° 259° (W) 1,499 10.1 -19.1°
Drops below altitude 10° 19:18:39 10° 287° (WNW) 1,674 9.9 -19.5°
Sets 19:21:42 0° 316° (NW) 2,565 10.5 -20.2°
